Starlink 3673

operational
NORAD ID: 52093 Int'l Des: 2022-029 Owner: SPXS Country: US Constellation: starlink
LEOCIRCULAR

About Starlink 3673

Description loading...

Live Position

Loading 3D Globe...

Upcoming Passes

Altitude History

Altitude vs Time

uPlot chart will show altitude changes over time

Two-Line Element Set

1 52093U 22029F 25351.66904725 -.00000420 00000-0 -83165-5 0 9995
2 52093 53.2185 97.3360 0000768 80.3401 279.7678 15.08833857208273
Epoch: Dec 17, 2025 • Age: 16 hours

Current Status

Altitude 558.5 km
Velocity 7.58 km/s
Sub-Earth Point -52.54°S, 177.31°E
Launch Date Mar 19, 2022
Age 3.7 years
Type internet

Technical Details

Classification Payload
Mass 297.00 kg
Dry Mass 275.00 kg
Total Mass 297.00 kg
Length 0.20 m
Diameter 2.80 m
Span 9.00 m
Shape Box + pan
Manufacturer SPXS
Bus Type Starlink
Phase Status In Orbit
Owner/State SPXS/US

Large Constellations

Loading constellations...